Regional Weather Roundup
Issued by NWS Green Bay, WI

Home | Current Version | Previous Version | Text Only | Print | Product List | Glossary On
Versions: 1 2 3 4 5 6 7 8 9 10 11 12 13 14 15 16 17 18 19 20 21 22 23 24 25 26 27 28 29 30 31 32 33 34 35 36 37 38 39 40 41 42 43 44 45 46 47 48 49 50
000
ASUS43 KGRB 301810
RWRGRB

NORTH-CENTRAL AND NORTHEAST WISCONSIN REGIONAL WEATHER ROUNDUP
NATIONAL WEATHER SERVICE GREEN BAY WI
100 PM CDT TUE SEP 30 2014

WIZ005-009-010>012-018-019-301900-
NORTH CENTRAL WISCONSIN

CITY           SKY/WX    TMP DP  RH WIND       PRES   REMARKS
IRONWOOD       NOT AVBL
MANITOWISH WTR CLOUDY    45  40  83 E5        30.09S
ARBOR VITAE    PTSUNNY   49  42  75 SE5       30.08F
EAGLE RIVER    PTSUNNY   47  39  74 E3        30.07F
LAND O LAKES   CLOUDY    47  42  80 N5        30.09F
RHINELANDER    PTSUNNY   49  40  71 VRB5      30.08F
PHILLIPS       SUNNY     51  41  68 E5        30.06F
ANTIGO         CLOUDY    46  41  81 CALM      30.09S
TOMAHAWK       SUNNY     50  39  67 CALM      30.09S
MERRILL        SUNNY     52  41  66 NE3       30.08S
$$

WIZ013-073-301900-
NORTHEAST WISCONSIN

CITY           SKY/WX    TMP DP  RH WIND       PRES   REMARKS
IRON MOUNTAIN  MOSUNNY   50  40  68 VRB3      30.07F
MARINETTE      NOT AVBL
OCONTO         CLOUDY    47  41  79 N8        30.09S
$$

WIZ017-030-035>037-045-301900-
CENTRAL WISCONSIN

CITY           SKY/WX    TMP DP  RH WIND       PRES   REMARKS
MEDFORD        SUNNY     51  41  69 E3        30.06F
WAUSAU         CLOUDY    49  40  71 VRB3      30.07F
MOSINEE        PTSUNNY   48  43  81 E3        30.09F
MARSHFIELD     CLOUDY    48  40  73 E5        30.08F
WISC RAPIDS    CLOUDY    50  40  68 SE9       30.10F
STEVENS POINT  CLOUDY    45  39  77 E8        30.09F
WAUPACA        CLOUDY    49  41  73 E3        30.11F
SHAWANO        CLOUDY    48  41  75 CALM      30.11S HAZE
CLINTONVILLE   CLOUDY    46  37  71 NE3       30.11R
$$

WIZ038-039-048-051-301900-
FOX VALLEY

CITY           SKY/WX    TMP DP  RH WIND       PRES   REMARKS
NWS GREEN BAY  CLOUDY    49  42  77 NE7       30.10S
APPLETON       CLOUDY    45  39  81 NE6       30.11R
OSHKOSH        CLOUDY    48  41  76 N7        30.10S
FOND DU LAC    CLOUDY    48  41  76 NE6       30.10S
$$

WIZ022-050-052-301900-
EAST CENTRAL WISCONSIN

CITY           SKY/WX    TMP DP  RH WIND       PRES   REMARKS
STURGEON BAY   NOT AVBL
MANITOWOC      NOT AVBL
SHEBOYGAN      NOT AVBL
$$

LMZ563-521-522-541>543-301900-
LAKESHORE

STATION/POSITION TIME  TEMP    WIND        PRES    VSBY  WAVE
                       AIR SEA DIR/SP/G                  HT/PER
                 (UTC) (F)     (DEG/KT/KT) (MB)    (MI)  (FT/S)
SHEBOYGAN LKSHOR 1800   48 54   10/ 14/ 15 1019.4R
KEWAUNEE LKSHORE 1800   49      30/  7/ 14 1017.6F
NORTHPORT PIER   1800   48      10/  9/ 15 1019.0F
N MID LAKE BUOY  1800   49 58   10/ 10/ 14 1018.5F         2/ 4
S GREEN BAY BUOY 1800   48     VRB 10/ 16  1019.8R
CHAMBERS ISLAND  1800   48     350/  9/ 13 1019.3S
MENOMINEE LKSHOR 1800   47      20/  8/ 10 1019.5F
$$



USA.gov is the U.S. government's official web portal to all federal, state and local government web resources and services.